TimeEET,TemperatureF,Dew PointF,Humidity,Sea Level PressureIn,VisibilityMPH,Wind Direction,Wind SpeedMPH,Gust SpeedMPH,PrecipitationIn,Events,Conditions,WindDirDegrees,DateUTC
12:00 AM,59.0,53.6,82,30.04,-9999.0,NW,4.6,-,N/A,,Clear,320,2012-11-14 22:00:00
1:00 AM,59.0,53.6,82,30.01,-9999.0,North,5.8,-,N/A,,Clear,10,2012-11-14 23:00:00
2:00 AM,59,52,71,30.03,6,North,5.8,,,,,350,2012-11-15 00:00:00
2:00 AM,59.0,51.8,77,30.01,-9999.0,North,5.8,-,N/A,,Clear,350,2012-11-15 00:00:00
3:00 AM,59.0,51.8,77,30.01,-9999.0,North,4.6,-,N/A,,Clear,350,2012-11-15 01:00:00
4:00 AM,57.2,51.8,82,30.01,-9999.0,North,4.6,-,N/A,,Clear,350,2012-11-15 02:00:00
5:00 AM,55.4,50.0,82,30.01,-9999.0,North,6.9,-,N/A,,Clear,350,2012-11-15 03:00:00
6:00 AM,55.4,51.8,88,30.01,-9999.0,North,5.8,-,N/A,,Clear,360,2012-11-15 04:00:00
7:00 AM,57.2,51.8,82,30.04,-9999.0,NNW,5.8,-,N/A,,Clear,330,2012-11-15 05:00:00
8:00 AM,58,49,65,30.06,6,WNW,4.6,,,,,300,2012-11-15 06:00:00
8:00 AM,59.0,50.0,72,30.04,-9999.0,WNW,4.6,-,N/A,,Clear,300,2012-11-15 06:00:00
9:00 AM,62.6,51.8,68,30.06,-9999.0,NNW,4.6,-,N/A,,Clear,340,2012-11-15 07:00:00
10:00 AM,69.8,51.8,53,30.06,-9999.0,North,3.5,-,N/A,,Clear,10,2012-11-15 08:00:00
11:00 AM,75.2,53.6,47,30.04,-9999.0,East,3.5,-,N/A,,Clear,90,2012-11-15 09:00:00
12:00 PM,78.8,53.6,42,30.04,-9999.0,ESE,3.5,-,N/A,,Clear,120,2012-11-15 10:00:00
1:00 PM,80.6,50.0,34,30.01,-9999.0,South,5.8,-,N/A,,Clear,180,2012-11-15 11:00:00
2:00 PM,83,51,23,29.96,6,NW,4.6,,,,,320,2012-11-15 12:00:00
2:00 PM,82.4,51.8,35,29.98,-9999.0,NW,4.6,-,N/A,,Clear,320,2012-11-15 12:00:00
3:00 PM,82.4,51.8,35,29.98,-9999.0,NNW,5.8,-,N/A,,Clear,330,2012-11-15 13:00:00
4:00 PM,82.4,50.0,32,29.98,-9999.0,NW,6.9,-,N/A,,Clear,310,2012-11-15 14:00:00
5:00 PM,78.8,50.0,36,29.98,-9999.0,NNW,5.8,-,N/A,,Clear,340,2012-11-15 15:00:00
6:00 PM,78.8,50.0,36,29.98,-9999.0,NNW,4.6,-,N/A,,Clear,330,2012-11-15 16:00:00
7:00 PM,69.8,51.8,53,30.01,-9999.0,North,4.6,-,N/A,,Clear,350,2012-11-15 17:00:00
8:00 PM,67,52,47,29.99,6,North,3.5,,,,,10,2012-11-15 18:00:00
8:00 PM,68.0,51.8,56,30.01,-9999.0,North,3.5,-,N/A,,Clear,10,2012-11-15 18:00:00
9:00 PM,64.4,51.8,64,30.01,-9999.0,NW,4.6,-,N/A,,Clear,310,2012-11-15 19:00:00
10:00 PM,62.6,51.8,68,30.01,-9999.0,NNW,4.6,-,N/A,,Clear,340,2012-11-15 20:00:00
11:00 PM,60.8,50.0,68,30.01,-9999.0,NNW,5.8,-,N/A,,Clear,340,2012-11-15 21:00:00